Location: Conflandey
(47.7287°N, 6.0456°E)
Time: 04:03:11
(UTC+00:00)

Cosmos 2278 Rocket - Pass Details

Date: 24 October 2021
Orbit: 841 x 845 km, 71.0° (Epoch: 05 December)

Event Time Altitude Azimuth Distance (km) Brightness Sun altitude
Rises 17:43:56 0° 338° (NNW) 3,417 5.6 -12.9°
Reaches altitude 10° 17:47:41 10° 2° (N) 2,477 4.6 -13.5°
Maximum altitude 17:50:41 14° 34° (NE) 2,175 4.0 -14.0°
Enters shadow 17:52:05 13° 51° (NE) 2,240 3.9 -14.2°
